Tracking 23611 objects as of 18-Sep-2021
HD Live streaming from Space Station
objects crossing your sky now
Track INSPIRATION-4

COSMOS 482 DESCENT CRAFT

Track COSMOS 482 DESCENT CRAFT now!
10-day predictions
COSMOS 482 DESCENT CRAFT is classified as:


NORAD ID: 6073
Int'l Code: 1972-023E
Perigee: 206.9 km
Apogee: 2,090.2 km
Inclination: 52.0 °
Period: 108.2 minutes
Semi major axis: 7519 km
RCS: 0.7153 m2 (medium)
Launch date: March 31, 1972
Source: Commonwealth of Independent States (former USSR) (CIS)
Launch site: TYURATAM MISSILE AND SPACE COMPLEX (TTMTR)
aabbcc
Your satellite tracking list
Your tracking list is empty




NASA's NSSDC Master Catalog

Two Line Element Set (TLE):
1 06073U 72023E   21261.52788277  .00027693  66006-5  10728-3 0  9999
2 06073  52.0282 260.7169 1252245 129.0769 242.8435 13.31414737562682
Source of the keplerian elements: AFSPC